Dewpoint
68 70 69 68 68 70 69 69 71 71 72 70 72 72 73 73 73 75 74 73 71 73 71 71 71 73 67 64 61 62 61 61 59 59 71 75 73 72 71 71 69 70 65
70 71 70 70 69 67 69 69 73 74 71 72 71 72 71 71 72 72 71 69 70 70 69 74 70 67 76 75 67 72 66 67 63 71 69 65 74 73 73 75 71 67 66
69 69 69 69 69 67 69 69 72 74 73 69 73 74 73 71 72 73 73 71 70 70 70 72 73 71 73 69 73 70 69 68 73 73 67 68 74 72 74 75 74 74 70
71 69 68 69 70 69 69 71 70 74 73 73 72 73 73 71 72 71 71 72 73 72 71 72 72 71 74 75 72 74 72 71 71 69 68 66 69 75 76 76 76 76 73
71 73 73 72 72 73 73 74 72 73 73 73 73 73 71 69 66 73 72 71 71 71 71 73 71 71 70 71 72 75 76 75 76 74 73 75 75 76 75 76 75 75 73
72 71 73 73 74 73 74 75 76 75 75 75 73 73 72 68 65 65 69 69 72 74 71 72 74 71 70 68 68 68 72 75 74 71 74 72 75 75 75 74 72 73 71
72 72 73 74 73 73 73 74 75 75 75 75 74 73 74 74 65 64 67 67 69 74 73 74 70 67 71 72 69 67 68 67 68 74 73 74 74 75 75 74 75 74 73
69 69 71 71 72 72 72 72 74 75 75 76 75 75 75 72 64 63 66 71 71 72 73 73 74 73 73 73 72 73 73 74 72 71 72 70 72 71 72 72 73 73 71
65 67 70 69 69 69 70 71 73 74 74 74 75 74 74 75 64 65 67 73 70 73 73 74 73 74 65 64 72 72 72 71 59 59 58 58 59 60 62 64 67 69 68
67 67 68 69 69 69 70 71 72 72 71 70 69 71 66 71 59 61 64 70 69 67 74 75 62 67 61 60 70 71 71 72 67 64 63 62 63 61 60 62 61 63 60
68 69 69 68 69 68 70 71 70 69 68 69 68 67 67 63 64 57 57 67 68 69 70 75 72 60 58 58 57 69 68 69 64 64 64 63 60 58 59 59 59 61 60
68 68 69 70 69 69 69 69 68 68 67 66 64 62 62 62 56 56 55 57 61 67 71 69 60 55 53 56 59 55 56 59 60 58 56 55 55 55 56 56 58 59 60
67 67 65 65 66 66 66 66 65 65 64 62 62 60 60 60 61 56 55 57 58 60 58 54 53 51 53 55 55 56 57 59 58 56 56 56 56 55 55 56 57 57 59
65 65 63 62 62 64 64 65 64 64 63 62 62 61 60 59 59 60 60 60 57 59 59 59 57 57 57 58 59 60 61 61 60 58 55 55 54 53 53 55 54 55 55
64 64 63 62 60 57 56 55 60 55 54 60 61 61 60 60 57 51 55 59 59 57 58 60 59 58 57 58 58 58 58 57 55 55 54 53 52 52 53 53 53 55 53
61 60 61 61 61 59 58 57 47 47 45 44 46 54 56 49 46 46 46 47 49 52 60 60 60 60 58 58 57 57 59 58 57 56 56 54 52 50 51 53 53 51 47
63 64 61 60 60 60 60 59 58 52 46 44 44 45 46 48 46 45 46 48 49 53 59 58 58 58 58 58 57 57 56 56 56 55 53 52 52 51 49 48 49 52 51
64 57 60 59 58 59 59 59 58 58 58 57 48 49 44 44 44 44 46 49 57 56 59 58 58 58 58 57 56 55 55 55 55 55 53 51 49 47 47 46 46 47 47
61 60 60 60 60 59 59 58 58 59 59 58 56 50 48 44 45 45 47 55 58 58 58 58 58 57 57 56 55 53 53 51 50 49 49 48 48 46 45 44 43 45 46
62 60 61 60 58 58 58 56 56 57 57 58 57 54 54 53 55 56 56 56 54 53 53 53 53 53 53 53 53 52 51 49 50 48 46 46 46 44 41 40 40 41 40
56 58 59 57 58 55 50 49 49 46 43 44 43 48 46 51 49 49 48 49 48 47 49 48 49 49 49 50 49 47 45 44 45 44 44 44 44 40 42 41 39 38 39
50 51 52 49 49 49 49 47 46 45 44 43 42 41 44 46 43 47 49 48 49 51 50 51 49 48 46 46 46 43 41 40 40 40 41 40 41 39 39 39 38 39 38
46 46 48 48 48 50 46 46 45 45 44 43 42 42 40 42 41 42 44 45 48 49 49 49 50 48 48 46 45 43 40 39 40 40 39 40 40 40 40 39 39 38 38
43 44 46 46 48 45 45 46 46 44 44 44 44 44 45 44 44 43 44 45 47 47 48 48 48 48 50 47 44 43 43 43 43 42 43 42 41 39 39 40 38 39 38
47 45 46 45 45 45 46 45 46 46 45 43 43 44 44 46 46 46 45 44 45 46 46 46 47 48 49 48 45 44 44 42 46 41 45 43 43 42 42 40 41 40 39
45 45 46 46 46 46 46 46 46 46 46 45 45 45 45 46 46 47 50 49 46 45 45 45 46 47 48 47 47 43 35 38 43 39 47 46 45 46 44 43 42 41 44
Lifted_Index
-5 -5 -4 -4 -4 -4 -4 -4 -5 -5 -5 -5 -5 -5 -5 -5 -5 -5 -4 -4 -3 -4 -4 -4 -4 -4 -3 -3 -2 -1 -1 -1 -1 -2 -3 -4 -5 -4 -4 -4 -3 -2 -1
-6 -5 -5 -4 -4 -4 -4 -4 -5 -5 -5 -5 -5 -5 -5 -4 -4 -4 -4 -3 -3 -4 -4 -4 -4 -4 -4 -4 -3 -2 -2 -2 -2 -3 -3 -4 -4 -4 -4 -4 -4 -2 -2
-5 -5 -5 -5 -4 -4 -4 -4 -5 -5 -5 -5 -5 -5 -5 -4 -4 -4 -4 -4 -4 -4 -4 -4 -4 -4 -4 -4 -4 -4 -3 -3 -4 -4 -4 -4 -4 -4 -5 -5 -4 -3 -2
-5 -5 -5 -5 -5 -4 -4 -4 -5 -5 -5 -5 -5 -5 -5 -4 -4 -4 -4 -4 -4 -4 -4 -4 -4 -4 -4 -4 -4 -4 -4 -4 -5 -5 -4 -4 -4 -5 -5 -5 -5 -4 -3
-5 -5 -6 -6 -5 -5 -5 -5 -5 -5 -6 -5 -5 -5 -5 -4 -4 -4 -4 -4 -4 -4 -4 -4 -4 -4 -4 -4 -4 -4 -4 -5 -5 -5 -5 -5 -5 -5 -5 -5 -4 -4 -3
-5 -6 -6 -6 -6 -6 -6 -6 -6 -6 -6 -6 -6 -5 -5 -5 -4 -3 -3 -4 -4 -4 -4 -4 -5 -4 -4 -4 -4 -4 -4 -5 -5 -5 -5 -5 -5 -5 -5 -5 -4 -4 -3
-5 -5 -5 -5 -5 -6 -6 -6 -6 -6 -6 -6 -6 -5 -5 -5 -4 -4 -3 -4 -4 -4 -5 -5 -5 -4 -4 -5 -4 -4 -4 -4 -4 -5 -5 -5 -5 -5 -5 -4 -4 -4 -3
-3 -3 -4 -5 -5 -5 -5 -5 -5 -5 -5 -5 -5 -5 -5 -5 -4 -4 -4 -4 -4 -5 -5 -5 -5 -5 -5 -5 -5 -4 -4 -4 -4 -4 -4 -4 -4 -4 -3 -3 -3 -3 -3
-1 -2 -2 -3 -3 -3 -4 -4 -4 -4 -4 -5 -5 -5 -5 -5 -4 -4 -4 -4 -4 -4 -5 -5 -5 -5 -4 -4 -4 -4 -4 -4 -4 -3 -3 -2 -2 -2 -2 -1 -1 -2 -2
-1 -1 -1 -2 -2 -2 -3 -3 -3 -3 -3 -3 -3 -3 -3 -3 -3 -3 -3 -3 -3 -4 -4 -5 -4 -4 -3 -3 -3 -3 -3 -3 -3 -3 -2 -2 -1 -1 -1 -1 -0 -1 -1
-2 -2 -2 -2 -2 -2 -2 -2 -2 -2 -1 -1 -1 -1 -1 -1 -1 -1 -1 -1 -2 -2 -3 -4 -3 -3 -2 -2 -2 -2 -2 -2 -2 -2 -1 -1 -1 -1 -0 0 1 1 1
-3 -3 -3 -2 -2 -2 -2 -2 -1 -1 -0 0 0 0 0 0 0 0 0 0 -0 -1 -2 -2 -2 -2 -1 -1 -0 -0 -0 -1 -1 -1 -0 -0 -0 0 1 2 3 3 4
-3 -3 -3 -3 -2 -2 -2 -2 -1 -1 -0 0 0 1 1 1 1 0 0 0 1 0 -0 -0 -0 -0 -0 0 0 1 1 1 1 1 1 1 2 2 3 4 4 5 5
-2 -2 -2 -3 -3 -3 -3 -2 -2 -1 -1 -1 -1 -0 0 1 1 1 0 0 0 1 1 1 1 1 1 1 2 2 2 2 3 3 3 3 3 4 4 4 4 5 5
-2 -2 -2 -2 -2 -2 -2 -2 -2 -2 -1 -1 -1 -1 -0 0 0 1 0 0 0 1 1 1 1 1 2 3 3 3 3 3 3 4 4 4 4 4 4 4 5 6 6
-2 -1 -1 -1 -1 -1 -1 -1 -1 -1 -1 -1 -1 -0 -0 0 0 0 1 1 1 1 2 2 2 2 3 3 4 4 4 4 4 4 4 4 4 5 5 6 7 7 7
-2 -1 -1 -1 -1 -1 -0 -0 -0 -0 0 0 0 0 0 1 1 1 1 1 1 2 2 2 2 2 3 3 3 4 4 4 4 4 5 5 6 7 7 8 8 8 7
-2 -2 -1 -1 -1 -1 -0 -0 0 0 0 1 1 1 1 1 2 2 2 2 2 2 2 2 2 3 3 3 4 4 4 5 5 6 6 7 8 8 8 8 8 7 7
-3 -2 -2 -2 -1 -1 -1 -0 0 0 0 1 1 2 3 3 3 3 3 2 2 2 2 3 3 3 4 4 4 5 5 6 6 7 7 8 8 8 8 8 7 7 7
-3 -3 -2 -2 -2 -1 -1 -0 0 1 1 2 3 3 4 5 4 4 3 3 3 3 3 3 4 4 4 5 5 6 6 7 7 7 7 7 8 8 8 8 8 7 7
-2 -2 -2 -2 -1 -1 0 1 1 2 3 4 5 6 6 5 5 4 4 4 4 4 4 4 5 5 5 6 6 7 7 7 7 8 8 8 8 8 8 8 8 7 7
-0 -0 -1 -0 -0 0 1 2 2 3 4 4 6 7 7 6 5 5 4 4 4 4 4 4 4 5 5 6 7 7 8 8 8 8 8 8 8 8 8 8 7 7 7
1 1 0 0 1 1 2 2 2 3 3 4 4 6 6 6 5 5 5 4 4 4 4 4 4 4 5 6 6 7 7 8 8 8 8 8 7 7 7 7 7 7 6
1 1 1 1 1 2 2 2 2 2 3 3 3 4 4 4 4 5 5 4 4 4 4 4 4 4 4 5 6 6 7 7 7 7 7 6 6 6 6 6 6 6 6
1 1 1 1 1 2 2 2 2 2 2 3 3 3 3 3 3 3 4 4 4 4 4 4 4 4 4 4 5 5 6 6 6 6 5 5 5 5 5 5 4 4 4
1 1 1 1 1 1 1 1 1 2 2 2 2 2 2 2 3 3 3 3 3 4 4 4 4 4 4 4 4 5 6 6 6 5 5 4 4 4 4 4 4 4 4